Location: Bismarck
(46.7731°N, 100.8200°W)
Time: 17:18:59
(UTC-05:00)

Daily predictions for brighter satellites

Satellite Brightness Start Highest point End
(mag) Time Altitude Azimuth Time Altitude Azimuth Time Altitude Azimuth
Cosmos 2237 Rocket 3.8 19:49:55 10° WSW 19:55:11 38° NW 20:00:29 10° NNE
Resurs 01 Rocket 2.3 19:51:17 10° SE 19:55:17 33° ENE 19:59:17 10° N
COSMO-SKYMED 1 2.5 19:51:39 10° NNE 19:56:02 77° ESE 20:00:22 10° S
METEOR-M 4.4 19:54:24 10° SE 19:59:30 48° ENE 20:04:38 10° N
SL-8 R/B 4.3 19:55:03 10° SW 19:59:31 41° SSE 20:04:00 10° E
SJ-6B 2.9 19:56:41 10° SSE 20:00:39 62° ENE 20:04:44 10° N
Cosmos 1076 Rocket 3.6 19:56:40 10° N 20:01:02 87° WSW 20:05:23 10° S
Cosmos 1484 Rocket 3.3 19:59:28 10° S 20:03:19 67° W 20:07:16 10° NNW
Cosmos 1378 4.2 20:00:04 10° NNW 20:03:42 50° W 20:07:19 10° S
ALOS 3.3 20:00:36 10° ESE 20:04:26 26° ENE 20:08:17 10° N
Cosmos 2151 4.3 20:05:07 10° NNE 20:08:13 20° ENE 20:11:13 10° ESE
Aureole 2 Rocket 4.3 20:04:33 10° SW 20:08:41 42° WNW 20:12:39 10° N
ASTEX 1 4.4 20:05:03 10° NNE 20:09:02 24° E 20:12:59 10° SE
Meteor 1-29 4.3 20:07:06 10° NE 20:09:48 20° E 20:12:28 10° SE
Nadezhda 4 Rocket 4.1 20:03:51 10° N 20:10:02 55° ENE 20:16:06 10° SSE
NOSS 3-2 (A) 3.8 20:03:56 10° SW 20:10:05 73° NW 20:16:54 10° NE
Cosmos 1766 Rocket 3.7 20:07:50 10° N 20:12:14 81° W 20:16:33 10° S
Cosmos-2242 3.0 20:10:41 10° S 20:14:59 62° E 20:19:22 10° NNE
SL-16 R/B 3.1 20:12:44 10° SW 20:18:18 52° WNW 20:23:52 10° NNE
Cosmos 1758 3.3 20:14:13 10° S 20:18:18 77° E 20:22:26 10° NNE
ISS -2.7 20:15:33 10° SW 20:18:36 39° SE 20:20:46 17° E
FENGYUN 3A 4.2 20:15:42 10° SE 20:20:39 39° ENE 20:25:38 10° N
Cosmos 1092 Rocket 4.2 20:15:01 10° N 20:21:03 49° ENE 20:26:59 10° SSE
Cosmos 2221 4.3 20:21:56 13° ENE 20:21:56 13° ENE 20:23:18 10° NE
Abrixas 2.7 20:20:18 10° SW 20:23:14 51° SSE 20:25:00 20° E
Cosmos 724 4.3 20:18:00 10° SSW 20:23:58 85° SE 20:30:08 10° NE
Meteor 1-28 Rocket 3.1 20:23:08 10° NNE 20:26:53 81° ESE 20:30:35 10° S
Meteor 1-21 Rocket 4.3 20:24:48 10° NNW 20:30:23 81° W 20:35:54 10° S
CENTAUR R/B 2.8 20:26:53 10° S 20:32:37 44° ESE 20:39:02 10° NE
Cosmos 839 Rocket 4.3 20:25:37 10° NW 20:33:37 72° NE 20:39:42 12° SE
NOAA 12 4.4 20:28:37 10° S 20:33:51 70° WSW 20:39:10 10° NNW
Cosmos 2251 Rocket 4.5 20:30:48 10° SSE 20:34:55 24° E 20:39:04 10° NE
CZ-2D R/B 4.0 20:32:42 18° SE 20:35:03 34° ENE 20:38:36 10° N
Cosmos 1328 4.4 20:31:31 10° N 20:35:10 34° ENE 20:37:22 19° SE
Cosmos 1346 3.9 20:34:04 10° NNW 20:36:59 51° W 20:39:53 10° S
ERBS 2.9 20:34:26 10° NW 20:37:49 44° NNE 20:39:19 27° E
Cosmos 1331 Rocket 4.5 20:35:15 10° N 20:40:18 42° ENE 20:43:31 20° ESE
Cosmos 1634 Rocket 4.2 20:35:15 10° SSE 20:41:05 44° E 20:46:54 10° NNE
Cosmos 1943 Rocket 2.7 20:36:04 10° NNW 20:41:20 39° NE 20:44:22 22° ESE
H-2A R/B 3.2 20:41:19 21° SE 20:43:26 41° ENE 20:47:04 10° N
Cosmos 1500 Rocket 3.5 20:39:16 10° N 20:43:44 79° E 20:48:12 10° SSE
Helios 1A 3.0 20:44:09 10° SSE 20:48:22 83° WSW 20:52:36 10° NNW
Cosmos 1842 Rocket 3.4 20:44:07 10° S 20:48:24 68° E 20:52:46 10° NNE
Cosmos 1805 4.4 20:45:15 10° SSW 20:49:04 47° WNW 20:52:53 10° N
FREGAT/IRIS 4.3 20:46:14 10° SSW 20:49:06 36° W 20:52:00 10° NNW
NOSS 3-2 (C) 4.3 20:45:14 10° WSW 20:51:19 53° NW 20:58:02 10° NE
Cosmos 2369 Rocket 2.2 20:47:26 10° NNW 20:53:07 86° WSW 20:58:45 10° SSE
Cosmos 1943 3.1 20:52:07 10° SSW 20:57:40 64° ESE 21:03:14 10° NNE
Elektron 1 4.0 20:55:17 10° SSW 20:58:06 52° SE 20:58:42 44° E
Spot 2 Rocket 3.9 20:53:09 10° S 20:58:08 63° WSW 21:03:10 10° NNW
Cosmos 1733 3.1 20:58:58 10° S 21:02:50 81° E 21:06:43 10° N
Cosmos 1048 Rocket 4.2 20:58:28 10° SSW 21:03:45 75° WNW 21:08:59 10° NNE
Cosmos 1674 3.6 21:02:07 10° NNW 21:05:54 51° W 21:09:40 10° S
Cosmos 1603 4.4 21:00:35 10° SW 21:06:13 56° WNW 21:11:54 10° NNE
Cosmos 2263 4.2 21:01:37 10° NNW 21:07:27 90° ESE 21:11:26 21° SSE
Cosmos 158 Rocket 3.7 21:03:46 10° SSW 21:08:37 76° ESE 21:13:31 10° NNE
Envisat 3.8 21:08:51 31° ENE 21:09:09 31° ENE 21:13:35 10° N
Cosmos 1953 4.4 21:05:53 10° SW 21:09:22 29° WNW 21:12:53 10° NNW
Helios 1B rocket 2.8 21:06:20 10° N 21:10:26 66° WNW 21:14:30 10° SSW
Gbstr 26 Del rocket 3.3 21:09:03 10° SW 21:13:33 66° SE 21:15:31 38° ENE
CZ-4B DEB 3.1 21:12:52 34° S 21:14:05 64° WSW 21:17:20 10° NNW
Cosmos 1174 3.6 21:09:43 10° SSW 21:14:13 87° SE 21:15:46 34° NE
Cosmos 1470 3.3 21:11:46 10° SSW 21:15:36 59° WNW 21:19:26 10° N
SL-24 R/B - RUBIN 2 4.5 21:09:36 10° NW 21:16:21 86° WSW 21:19:51 29° SSE
USA 215 3.3 21:13:01 23° ENE 21:17:08 53° SE 21:23:29 10° SSW
CZ-4C R/B 4.5 21:18:06 10° WNW 21:22:32 21° NNW 21:27:25 10° NNE
Cosmos 1627 Rocket 4.4 21:19:03 10° N 21:25:17 88° W 21:31:13 12° S
USA 186 4.1 21:27:30 13° NNW 21:27:30 13° NNW 21:27:51 10° NNW
Sich 1 3.9 21:22:30 10° N 21:25:37 35° NE 21:25:37 35° NE
ATLAS 5 CENTAUR R/B 3.7 21:22:55 10° W 21:27:18 30° NNW 21:32:05 10° NNE
Cosmos 2058 2.8 21:27:30 10° N 21:31:38 87° W 21:32:01 73° S
Resurs 01 Rocket 3.6 21:27:57 10° SSW 21:31:47 28° W 21:35:37 10° NW
ERS-1 Rocket 3.0 21:36:04 57° ENE 21:36:07 57° ENE 21:41:03 10° N
H-2A R/B 4.3 21:39:39 11° NE 21:39:39 11° NE 21:40:01 10° NNE
Cosmos 1656 Rocket 3.8 21:36:09 10° NNW 21:41:28 52° ENE 21:41:31 52° ENE
ALOS 3.5 21:37:19 10° SSW 21:41:42 40° W 21:46:07 10° NNW
SL-8 R/B 3.6 21:37:05 10° WSW 21:41:53 84° NNW 21:42:09 79° NE
Meteor 1-16 Rocket 4.1 21:37:16 10° SSW 21:42:34 81° W 21:47:57 10° N
Cosmos 2151 4.1 21:41:45 10° NNW 21:45:44 41° W 21:47:52 23° SSW
BREEZE-M DEB (TANK) 3.1 21:35:46 10° W 21:46:19 68° SSW 21:46:53 62° SSE
Meteor 2-1 Rocket 4.2 21:40:35 10° S 21:46:23 82° E 21:52:20 10° NNE
Cosmos 2180 Rocket 4.3 21:45:07 49° SSE 21:46:43 68° E 21:52:50 10° NNE
GP-B 3.9 21:45:50 10° N 21:50:09 50° W 21:52:51 21° SSW
Cosmos 1437 Rocket 4.3 21:54:53 29° N 21:54:53 29° N 21:56:59 10° N
ISS -1.0 21:51:54 10° W 21:53:27 24° W 21:53:27 24° W
H-2A R/B 3.8 21:57:27 25° NNE 21:57:27 25° NNE 21:59:35 10° N
Cosmos 1805 Rocket 3.9 21:51:22 10° NNW 21:55:39 64° W 21:55:39 64° W
Cosmos 2221 3.1 21:58:44 55° NW 21:58:44 55° NW 22:02:29 10° N
SPOT 5 4.4 22:00:49 22° NNE 22:00:49 22° NNE 22:02:37 10° N
Cosmos 2279 Rocket 3.9 21:53:44 10° S 21:59:56 82° W 22:06:12 10° N
Cosmos 1633 Rocket 4.2 22:02:24 10° N 22:05:11 39° NNW 22:05:11 39° NNW
Cosmos 2266 Rocket 4.0 22:08:14 10° N 22:14:00 68° NE 22:14:00 68° NE
Cosmos 494 Rocket 4.3 22:11:36 10° SW 22:16:44 61° WNW 22:21:53 10° NNE
Cosmos 2251 Rocket 4.3 22:11:47 10° SW 22:16:52 50° WNW 22:22:00 10° NNE
Cosmos 1980 Rocket 4.4 22:20:17 10° N 22:22:13 13° NNE 22:22:13 13° NNE
CENTAUR R/B 3.5 22:17:11 10° WSW 22:23:16 48° NW 22:30:10 10° NE
Cosmos 1943 Rocket 3.3 22:19:57 10° NW 22:25:03 37° WSW 22:25:56 35° SW
Terra 4.4 22:46:04 12° N 22:46:04 12° N 22:46:33 10° N
Envisat 4.4 22:49:04 35° WNW 22:49:04 35° WNW 22:52:49 10° NNW
USA 215 3.6 23:00:25 61° NW 23:00:25 61° NW 23:06:38 10° WSW
H-2A R/B 4.3 23:20:17 19° N 23:20:17 19° N 23:21:42 10° N
ATLAS 3B R/B 4.4 23:24:28 10° NNW 23:30:11 24° NNE 23:30:13 24° NNE
